Temp
9 9 9 9 9 8 8 8 8 8 7 7 7 7 6 8 7 7 7 7 7 6
9 9 9 9 8 8 8 7 7 7 7 7 7 7 7 8 7 7 7 6 6 6
9 9 9 9 8 8 7 7 7 7 7 7 7 6 7 7 6 6 6 6 6 5
9 8 8 8 8 8 7 7 6 7 6 7 6 6 7 6 6 6 6 5 5 4
10 9 8 8 8 8 6 6 7 6 6 6 6 6 6 6 5 5 5 5 4 4
9 9 8 8 7 6 6 6 6 6 6 6 6 6 5 5 5 5 4 4 3 3
8 8 8 6 6 6 6 6 6 6 6 6 6 5 5 5 4 4 3 3 3 2
7 7 7 6 6 6 5 5 5 5 5 5 5 5 4 4 3 3 3 2 2 1
7 6 6 6 5 5 5 5 5 5 5 5 4 4 3 3 3 3 2 2 1 1
6 6 5 5 5 5 5 5 5 4 4 4 4 3 3 3 2 2 2 1 1 1
5 6 5 4 4 4 5 4 4 4 4 3 3 3 2 2 2 1 1 1 -0 -1
5 5 5 4 4 4 4 4 4 3 3 3 2 2 2 1 1 1 1 0 -1 -3
4 5 5 4 4 4 4 4 3 3 2 2 2 1 1 1 1 0 -1 -1 -2 -3
4 4 4 4 4 4 4 3 2 2 2 1 1 1 0 0 -1 -1 -2 -3 -5 -6
Height
1473 1479 1486 1491 1497 1503 1506 1510 1513 1515 1518 1520 1522 1522 1526 1524 1528 1528 1528 1528 1527 1527
1471 1476 1485 1490 1497 1502 1505 1509 1512 1514 1517 1520 1522 1523 1526 1524 1528 1529 1528 1527 1526 1525
1468 1478 1486 1492 1497 1501 1506 1509 1511 1513 1515 1519 1522 1524 1524 1526 1528 1528 1528 1526 1524 1523
1466 1479 1488 1493 1497 1500 1507 1509 1511 1512 1516 1518 1521 1525 1524 1528 1527 1527 1526 1524 1523 1521
1472 1479 1486 1494 1496 1500 1507 1509 1511 1514 1516 1519 1522 1524 1527 1527 1526 1525 1524 1523 1521 1518
1474 1480 1488 1492 1494 1501 1506 1509 1513 1515 1516 1520 1522 1525 1526 1526 1525 1523 1522 1521 1518 1515
1474 1480 1486 1493 1497 1500 1505 1510 1514 1516 1518 1520 1523 1525 1525 1524 1523 1521 1520 1517 1515 1512
1475 1481 1487 1493 1498 1502 1507 1512 1514 1517 1519 1520 1522 1523 1524 1523 1521 1520 1517 1514 1512 1509
1477 1484 1489 1495 1499 1503 1508 1511 1515 1518 1519 1520 1522 1522 1522 1520 1518 1516 1514 1512 1508 1505
1480 1485 1492 1497 1501 1505 1508 1512 1516 1518 1518 1519 1520 1520 1519 1518 1516 1514 1511 1508 1504 1501
1482 1485 1492 1499 1503 1507 1509 1513 1516 1516 1517 1518 1519 1518 1517 1515 1513 1510 1507 1504 1500 1497
1486 1488 1491 1500 1505 1507 1511 1513 1514 1516 1517 1517 1517 1516 1514 1512 1509 1506 1503 1500 1496 1492
1487 1491 1495 1502 1506 1509 1511 1512 1514 1515 1515 1515 1515 1513 1511 1508 1505 1502 1499 1495 1492 1489
1489 1495 1499 1504 1507 1509 1510 1512 1514 1514 1514 1513 1511 1509 1507 1504 1500 1497 1494 1491 1488 1485
Wind_Speed
25 22 21 19 19 17 15 13 12 10 8 7 6 5 5 7 5 6 6 6 7 7
25 21 21 20 18 16 14 13 12 10 8 6 6 7 6 8 5 5 5 6 7 9
25 21 19 18 17 14 13 13 12 10 9 7 8 8 7 6 4 4 5 7 9 11
21 18 19 17 16 14 14 11 12 10 10 10 9 7 6 3 3 5 7 10 11 13
28 22 16 17 16 14 14 14 11 11 11 11 9 6 3 2 4 7 9 11 13 15
27 24 19 14 15 16 13 12 13 13 12 10 7 3 1 4 7 9 11 13 15 18
26 21 19 20 18 15 14 13 14 13 11 8 4 1 3 6 8 11 13 15 17 18
24 21 20 18 17 17 16 16 14 11 8 5 1 3 5 8 10 12 14 16 18 20
21 20 20 19 18 19 18 16 13 9 6 2 1 5 7 9 11 14 16 19 21 22
24 23 20 19 19 19 18 14 10 7 3 0 3 6 8 11 14 16 19 21 22 23
23 21 21 21 20 18 15 11 7 4 1 2 5 8 10 13 16 18 20 22 22 22
23 23 23 20 18 15 12 9 5 2 1 3 6 9 13 16 18 19 20 21 21 18
21 21 23 20 16 13 10 6 3 1 2 5 8 12 15 16 19 20 20 20 18 18
23 21 20 18 14 10 7 5 2 1 4 7 10 14 16 17 18 19 20 18 16 16
Wind_Direction
160 159 161 165 164 167 166 169 163 157 153 146 141 127 133 107 101 89 75 52 31 11
153 155 159 159 163 167 164 166 162 154 146 146 138 130 130 104 97 70 46 26 6 351
146 148 154 158 161 159 163 163 157 149 143 146 139 134 114 101 81 44 10 355 348 340
138 150 155 158 157 155 164 158 155 147 149 138 133 126 104 100 42 0 346 343 339 333
157 161 159 162 159 162 168 160 150 145 141 139 131 122 115 29 352 342 338 334 332 333
159 161 163 163 159 161 163 158 151 145 137 139 129 132 17 338 335 335 334 334 337 335
157 160 163 166 162 155 152 153 150 146 143 136 141 170 330 332 335 338 338 337 334 332
153 156 157 160 158 155 154 154 147 147 148 146 154 321 329 338 342 339 335 332 332 330
156 158 158 160 158 154 153 149 150 154 152 155 316 331 340 338 336 334 333 333 331 328
160 154 155 156 156 154 151 151 156 156 145 35 338 332 332 335 335 335 333 330 329 328
156 155 156 159 156 153 150 153 158 148 114 339 327 331 333 333 335 333 332 332 329 324
161 156 152 156 157 154 155 152 147 145 303 334 331 330 333 334 332 332 333 329 327 326
157 156 152 158 158 156 153 146 161 186 347 331 330 332 332 332 332 331 330 331 325 321
154 156 157 158 156 154 153 159 152 354 331 331 333 330 331 331 331 329 328 323 321 318